EN

Hourly Weather Godzikowice

Today, 16 May, Sunday

Time Temperature Precipitation Wind Pressure Humidity
00:00 +12°C° 0.5 mm 2 mps 741 mmHg 95%
01:00 +10°C° 0 mm 2 mps 741 mmHg 95%
02:00 +10°C° 0.3 mm 2 mps 740 mmHg 95%
03:00 +10°C° 0.3 mm 2 mps 740 mmHg 95%
04:00 +10°C° 0.3 mm 2 mps 740 mmHg 95%
05:00 +11°C° 0 mm 3 mps 740 mmHg 92%
06:00 +11°C° 0 mm 3 mps 741 mmHg 89%
07:00 +12°C° 0 mm 4 mps 741 mmHg 86%
08:00 +13°C° 0.1 mm 4 mps 741 mmHg 81%
09:00 +14°C° 0.1 mm 4 mps 741 mmHg 76%
10:00 +14°C° 0.1 mm 5 mps 741 mmHg 71%
11:00 +15°C° 0.1 mm 5 mps 741 mmHg 67%
12:00 +16°C° 0.1 mm 5 mps 741 mmHg 64%
13:00 +16°C° 0.1 mm 5 mps 741 mmHg 60%
14:00 +16°C° 0 mm 5 mps 741 mmHg 60%
15:00 +17°C° 0 mm 4 mps 741 mmHg 61%
16:00 +17°C° 0 mm 4 mps 741 mmHg 61%
17:00 +16°C° 0 mm 3 mps 741 mmHg 66%
18:00 +14°C° 0 mm 3 mps 741 mmHg 71%
19:00 +14°C° 0 mm 2 mps 741 mmHg 76%
20:00 +13°C° 0 mm 2 mps 741 mmHg 78%
21:00 +12°C° 0 mm 2 mps 741 mmHg 80%
22:00 +10°C° 0 mm 2 mps 741 mmHg 83%
23:00 +10°C° 0 mm 2 mps 741 mmHg 83%

Tomorrow, 17 May, Monday

Time Temperature Precipitation Wind Pressure Humidity
00:00 +10°C° 0 mm 2 mps 741 mmHg 83%
01:00 +10°C° 0 mm 2 mps 741 mmHg 83%
02:00 +10°C° 0 mm 2 mps 741 mmHg 83%
03:00 +10°C° 0 mm 2 mps 741 mmHg 83%
04:00 +10°C° 0 mm 2 mps 740 mmHg 83%
05:00 +10°C° 0.6 mm 2 mps 741 mmHg 86%
06:00 +10°C° 0.6 mm 3 mps 741 mmHg 89%
07:00 +11°C° 0.6 mm 3 mps 741 mmHg 92%
08:00 +11°C° 1 mm 3 mps 741 mmHg 92%
09:00 +12°C° 1 mm 2 mps 741 mmHg 92%
10:00 +12°C° 1 mm 1 mps 741 mmHg 92%
11:00 +12°C° 1.1 mm 1 mps 741 mmHg 92%
12:00 +12°C° 1.1 mm 1 mps 741 mmHg 93%
13:00 +12°C° 1.1 mm 1 mps 741 mmHg 94%
14:00 +12°C° 0.7 mm 1 mps 741 mmHg 92%
15:00 +12°C° 0.7 mm 1 mps 741 mmHg 91%
16:00 +13°C° 0.7 mm 1 mps 741 mmHg 89%
17:00 +12°C° 0.3 mm 2 mps 741 mmHg 90%
18:00 +12°C° 0.3 mm 2 mps 741 mmHg 91%
19:00 +11°C° 0.3 mm 3 mps 741 mmHg 91%
20:00 +11°C° 0.1 mm 4 mps 742 mmHg 91%
21:00 +11°C° 0.1 mm 4 mps 742 mmHg 91%
22:00 +9°C° 0.1 mm 5 mps 742 mmHg 91%
23:00 +9°C° 0 mm 5 mps 743 mmHg 91%

Day after tomorrow, 18 May, Tuesday

Time Temperature Precipitation Wind Pressure Humidity
00:00 +8°C° 0 mm 5 mps 743 mmHg 90%
01:00 +8°C° 0 mm 5 mps 743 mmHg 90%
02:00 +7°C° 0 mm 5 mps 743 mmHg 91%
03:00 +7°C° 0 mm 4 mps 743 mmHg 92%
04:00 +6°C° 0 mm 4 mps 743 mmHg 92%
05:00 +7°C° 0 mm 4 mps 744 mmHg 90%
06:00 +8°C° 0 mm 4 mps 744 mmHg 87%
07:00 +9°C° 0 mm 5 mps 744 mmHg 84%
08:00 +10°C° 0 mm 5 mps 744 mmHg 83%
09:00 +10°C° 0 mm 5 mps 744 mmHg 82%
10:00 +10°C° 0 mm 5 mps 745 mmHg 81%
11:00 +13°C° 0.1 mm 5 mps 745 mmHg 76%
12:00 +14°C° 0.1 mm 6 mps 744 mmHg 71%
13:00 +15°C° 0.1 mm 6 mps 744 mmHg 66%
14:00 +15°C° 0.3 mm 6 mps 744 mmHg 68%
15:00 +15°C° 0.3 mm 6 mps 745 mmHg 71%
16:00 +15°C° 0.3 mm 6 mps 745 mmHg 73%
17:00 +14°C° 0.2 mm 5 mps 745 mmHg 78%
18:00 +12°C° 0.2 mm 4 mps 745 mmHg 82%
19:00 +11°C° 0.2 mm 3 mps 745 mmHg 87%
20:00 +10°C° 0 mm 3 mps 746 mmHg 89%
21:00 +9°C° 0 mm 3 mps 746 mmHg 91%
22:00 +8°C° 0 mm 3 mps 746 mmHg 93%
23:00 +8°C° 0 mm 3 mps 747 mmHg 93%

19 May, Wednesday

Time Temperature Precipitation Wind Pressure Humidity
00:00 +8°C° 0 mm 3 mps 747 mmHg 93%
01:00 +7°C° 0 mm 3 mps 747 mmHg 93%
02:00 +7°C° 0 mm 3 mps 747 mmHg 93%
03:00 +7°C° 0 mm 3 mps 747 mmHg 93%
04:00 +7°C° 0 mm 3 mps 747 mmHg 93%
05:00 +8°C° 0 mm 3 mps 747 mmHg 90%
06:00 +9°C° 0 mm 3 mps 748 mmHg 86%
07:00 +10°C° 0 mm 4 mps 748 mmHg 83%
08:00 +10°C° 0.1 mm 4 mps 748 mmHg 81%
09:00 +11°C° 0.1 mm 4 mps 748 mmHg 80%
10:00 +11°C° 0.1 mm 4 mps 748 mmHg 79%
11:00 +10°C° 0.1 mm 5 mps 748 mmHg 80%
12:00 +10°C° 0.1 mm 5 mps 748 mmHg 82%
13:00 +10°C° 0.1 mm 5 mps 748 mmHg 83%
14:00 +10°C° 0.2 mm 5 mps 748 mmHg 83%
15:00 +10°C° 0.2 mm 5 mps 748 mmHg 83%
16:00 +10°C° 0.2 mm 6 mps 748 mmHg 83%
17:00 +9°C° 0 mm 5 mps 748 mmHg 84%
18:00 +10°C° 0 mm 4 mps 748 mmHg 85%
19:00 +10°C° 0 mm 3 mps 748 mmHg 86%
20:00 +9°C° 0 mm 3 mps 748 mmHg 88%
21:00 +8°C° 0 mm 3 mps 749 mmHg 91%
22:00 +7°C° 0 mm 3 mps 749 mmHg 93%
23:00 +7°C° 0 mm 3 mps 749 mmHg 94%

20 May, Thursday

Time Temperature Precipitation Wind Pressure Humidity
00:00 +7°C° 0 mm 3 mps 749 mmHg 94%
01:00 +5°C° 0 mm 3 mps 749 mmHg 94%
02:00 +5°C° 0 mm 3 mps 749 mmHg 94%
03:00 +5°C° 0 mm 3 mps 749 mmHg 95%
04:00 +5°C° 0 mm 3 mps 749 mmHg 95%
05:00 +7°C° 0 mm 3 mps 749 mmHg 91%
06:00 +7°C° 0 mm 4 mps 749 mmHg 88%
07:00 +10°C° 0 mm 4 mps 750 mmHg 85%
08:00 +10°C° 0.2 mm 5 mps 750 mmHg 80%
09:00 +12°C° 0.2 mm 5 mps 750 mmHg 76%
10:00 +13°C° 0.2 mm 5 mps 750 mmHg 72%
11:00 +13°C° 0.3 mm 5 mps 750 mmHg 73%
12:00 +13°C° 0.3 mm 5 mps 750 mmHg 75%
13:00 +13°C° 0.3 mm 5 mps 750 mmHg 76%
14:00 +13°C° 0.2 mm 5 mps 750 mmHg 72%
15:00 +14°C° 0.2 mm 5 mps 750 mmHg 69%
16:00 +14°C° 0.2 mm 5 mps 750 mmHg 65%
17:00 +13°C° 0.1 mm 4 mps 750 mmHg 69%
18:00 +12°C° 0.1 mm 4 mps 750 mmHg 73%
19:00 +11°C° 0.1 mm 3 mps 750 mmHg 77%
20:00 +10°C° 0 mm 3 mps 750 mmHg 79%
21:00 +9°C° 0 mm 3 mps 750 mmHg 82%
22:00 +8°C° 0 mm 3 mps 751 mmHg 84%
23:00 +7°C° 0 mm 3 mps 750 mmHg 84%

21 May, Friday

Time Temperature Precipitation Wind Pressure Humidity
00:00 +7°C° 0 mm 3 mps 750 mmHg 85%
01:00 +7°C° 0 mm 3 mps 750 mmHg 85%
02:00 +6°C° 0 mm 2 mps 750 mmHg 86%
03:00 +6°C° 0 mm 2 mps 750 mmHg 87%
04:00 +6°C° 0 mm 2 mps 750 mmHg 87%
05:00 +8°C° 0 mm 2 mps 750 mmHg 83%
06:00 +9°C° 0 mm 2 mps 750 mmHg 79%
07:00 +12°C° 0 mm 2 mps 750 mmHg 75%
08:00 +12°C° 0.1 mm 3 mps 749 mmHg 70%
09:00 +14°C° 0.1 mm 3 mps 749 mmHg 65%
10:00 +15°C° 0.1 mm 4 mps 749 mmHg 60%
11:00 +17°C° 0.1 mm 4 mps 748 mmHg 57%
12:00 +17°C° 0.1 mm 5 mps 748 mmHg 55%
13:00 +17°C° 0.1 mm 5 mps 747 mmHg 52%
14:00 +17°C° 0 mm 5 mps 747 mmHg 53%
15:00 +18°C° 0 mm 4 mps 746 mmHg 55%
16:00 +18°C° 0 mm 3 mps 746 mmHg 57%
17:00 +17°C° 0 mm 3 mps 745 mmHg 63%
18:00 +16°C° 0 mm 3 mps 745 mmHg 69%
19:00 +14°C° 0 mm 3 mps 745 mmHg 75%
20:00 +13°C° 0 mm 3 mps 744 mmHg 74%
21:00 +13°C° 0 mm 4 mps 744 mmHg 73%
22:00 +12°C° 0 mm 4 mps 744 mmHg 72%
23:00 +12°C° 0 mm 4 mps 744 mmHg 74%
Show more